sat.trackr.live / text

‹ back to catalog

STARLINK-34902

NORAD 65326 · 2025-189D

PAYLOAD ACTIVE UNKNOWN

§ Identity

Operator
Country
US
Launch date
2025-08-27
Launch site
AFETR
Launch vehicle
Mass (kg)
RCS (m²)

Purposes: comms

External: N2YO · Heavens-Above · Gunter

§ Orbital elements

Epoch: 2026-05-25T03:54:14.084928Z

Period
94.10 min
Inclination
53.1585°
Eccentricity
0.0001163
Mean motion
15.30206590 rev/d
Perigee alt
474.4 km
Apogee alt
476.0 km
Semi-major
6,853.3 km
B*
4.2077e-4
RAAN
211.6435°
Arg perigee
79.9230°
Mean anomaly
280.1902°
Rev number
4,281

§ Raw data

STARLINK-349021 65326U 25189D   26145.16266302  .00012126  00000+0  42077-3 0  99952 65326  53.1585 211.6435 0001163  79.9230 280.1902 15.30206590 42812

JSON: /api/v1/satellites/65326 · /tle

For live sub-satellite position, see the globe view (requires WebGL).

§ Visibility from observer

Set your observer location to see the next 7 days of passes ≥ 10°. The values pass through the URL so the page stays shareable.

No JS? Fill the form by hand. The geolocation button needs JavaScript.